Welcome to the New NWS' Forecast!
Most changes are behind the scenes, but click here for differences you might notice.

Regional Weather Roundup (RWR)

Issued by Gray - Portland, ME (GYX)

                            
287 
ASUS41 KGYX 211305
RWRGYX
WEATHER ROUNDUP FOR MAINE AND NEW HAMPSHIRE
NATIONAL WEATHER SERVICE GRAY ME
800 AM EST SUN JAN 21 2018

MEZ002-005-006-010-012-015-018-020-021-024-026-027-029-211400-
MAINE
  
CITY           SKY/WX    TMP DP  RH WIND       PRES   REMARKS
PORTLAND       FAIR      33  28  81 SW7       30.06R                  
SANFORD        FAIR      31  27  85 SW8       30.07R                  
BAR HARBOR     FAIR      34  23  64 NW3       30.04R                  
WISCASSET      FAIR      35  27  72 NW5       30.05R                  
ROCKLAND       FAIR      38  26  62 NW3       30.03R                  
FRYEBURG       MOCLDY    39  27  62 W7        30.03R                  
LEWISTONAUBURN FAIR      30  25  81 W3        30.04R                  
AUGUSTA        FAIR      37  23  56 NW6       30.03R                  
WATERVILLE     FAIR      36  21  54 W7        29.99R                  
BANGOR         FAIR      28  19  69 NW6       30.03R                  
GREENVILLE       N/A     19  12  74 NW20      29.95R WCI   3          
MILLINOCKET    FAIR      21  11  65 W8G20     30.03R                  
HOULTON        FAIR      18   9  68 W7        29.99R                  
PRESQUE ISLE   FAIR      11   6  81 CALM      30.01R                  
FRENCHVILLE    FAIR       8   3  80 NW7       29.95R                  
CARIBOU        FAIR      12   3  67 W6        29.98R                  
$$

NHZ002-005-008-009-011-012-014-211400-
NEW HAMPSHIRE
  
CITY           SKY/WX    TMP DP  RH WIND       PRES   REMARKS
PORTSMOUTH     MOCLDY    34  26  73 W8        30.06R                  
ROCHESTER      FAIR      34  28  79 VRB3      30.06R                  
NASHUA         CLOUDY    30  29  96 CALM      30.10R                  
MANCHESTER     MOCLDY    31  27  85 CALM      30.08R                  
CONCORD        CLOUDY    27  24  89 CALM      30.08R                  
LACONIA        MOCLDY    33  29  85 W5        30.06R                  
PLYMOUTH       MOCLDY    37  28  70 CALM      30.05R                  
BERLIN         CLOUDY    34  23  64 W7        30.02R                  
WHITEFIELD     CLOUDY    34  25  69 CALM      30.06R                  
JAFFREY        CLOUDY    31  28  89 CALM      30.07R                  
KEENE          CLOUDY    22  21  96 CALM        N/A                   
LEBANON        CLOUDY    31  28  89 CALM      30.08R                  
MT WASHINGTON  FOG       12  12 100 NW59G76     N/A  VSB 0   WCI -15  
$$

VTZ005-007-008-211400-
VERMONT
  
CITY           SKY/WX    TMP DP  RH WIND       PRES   REMARKS
ST JOHNSBURY     N/A     34  26  72 MISG      30.06R                  
MONTPELIER     CLOUDY    33  28  81 N5        30.09R                  
BURLINGTON     CLOUDY    36  27  69 E6        30.10R                  
$$

MAZ007-012-024-CTZ003-RIZ002-NYZ038-NYZ072-211400-
SOUTHERN NEW ENGLAND AND NY
  
CITY           SKY/WX    TMP DP  RH WIND       PRES   REMARKS
BOSTON         MOCLDY    40  29  64 W7        30.10                   
WORCESTER      FAIR      35  26  69 NW10      30.07R                  
NANTUCKET      FAIR      38  30  73 NW10      30.10R                  
PROVIDENCE     FAIR      31  29  92 S7        30.12R                  
HARTFORD       MOCLDY    27  25  92 W3        30.13R                  
ALBANY         CLOUDY    37  28  70 W12       30.14R                  
NEW YORK CITY  MOCLDY    44  28  53 W7        30.16R                  
$$

ANZ081-ANZ082-ANZ150-NHZ014-MEZ023>029-211400-
COASTAL MARINE OBSERVATIONS
  
STATION/POSITION TIME  TEMP    WIND        PRES    WAVE
                       AIR SEA DIR/SP/G            HT/PER
                 (UTC) (F)     (DEG/KT/KT) (MB)    (FT/S)
MOUNT DESERT ROC 1300   38     350/  8/  9 1017.0R
MATINICUS ROCK   1200   40     270/ 12/ 13 1015.7R
ISLE OF SHOALS   1200   37     240/ 14/ 15 1017.5R
JEFFREYS LEDGE   1236      43                N/A     3/ 3
GEORGES BANK BUO 1150   49 59              1013.4   11/10
$$

.............KEY..............
   WCI - WIND CHILL
   TC  - TEMPERATURE IN CELSIUS
   VSB - VISIBILITY IN MILES
   HX  - HEAT INDEX
   FAIR- INDICATES FEW OR NO CLOUDS BELOW 12,000 FT, WITH NO 
         SIGNIFICANT WEATHER AND/OR OBSTRUCTIONS TO VISIBILITY.